| time (UTC) | temp C | wind direction | speed KPH | gust KPH | rain 1hr cm | rain 24hr cm | rain mn cm | humidity % | barometer mb |
| 20260504213518 | 20 | 297 | 12.9 | 29.0 | 660.20 | 0.00 | 0.00 | ||
| 20260504213018 | 20 | 309 | 11.3 | 25.7 | 660.20 | 0.00 | 0.00 | ||
| 20260504212518 | 20 | 281 | 8.0 | 14.5 | 660.20 | 0.00 | 0.00 | ||
| 20260504211018 | 20 | 293 | 6.4 | 16.1 | 660.20 | 0.00 | 0.00 | ||
| 20260504205518 | 20 | 269 | 8.0 | 22.5 | 660.20 | 0.00 | 0.00 | ||
| 20260504202519 | 21 | 274 | 9.7 | 20.9 | 660.20 | 0.00 | 0.00 | ||
| 20260504202018 | 20 | 301 | 14.5 | 30.6 | 660.20 | 0.00 | 0.00 | ||
| 20260504201518 | 20 | 288 | 14.5 | 30.6 | 660.20 | 0.00 | 0.00 | ||
| 20260504201018 | 21 | 311 | 12.9 | 30.6 | 660.20 | 0.00 | 0.00 | ||
| 20260504200518 | 21 | 304 | 11.3 | 22.5 | 660.20 | 0.00 | 0.00 | ||
| 20260504200018 | 21 | 280 | 12.9 | 25.7 | 660.20 | 0.00 | 0.00 | ||
| 20260504195518 | 20 | 330 | 11.3 | 27.4 | 660.20 | 0.00 | 0.00 | ||
| 20260504194518 | 20 | 281 | 6.4 | 20.9 | 660.20 | 0.00 | 0.00 | ||
| 20260504193518 | 19 | 290 | 8.0 | 17.7 | 660.20 | 0.00 | 0.00 | ||
| 20260504184019 | 20 | 315 | 8.0 | 29.0 | 660.20 | 0.00 | 0.00 | ||
| 20260504183518 | 20 | 312 | 6.4 | 20.9 | 660.20 | 0.00 | 0.00 | ||
| 20260504181518 | 17 | 319 | 9.7 | 22.5 | 660.20 | 0.00 | 0.00 | ||
| 20260504175518 | 16 | 281 | 12.9 | 30.6 | 660.20 | 0.00 | 0.00 | ||
| 20260504174518 | 16 | 318 | 12.9 | 30.6 | 660.20 | 0.00 | 0.00 | ||
| 20260504173518 | 16 | 319 | 14.5 | 32.2 | 660.20 | 0.00 | 0.00 | ||
| 20260504172518 | 16 | 293 | 12.9 | 35.4 | 660.20 | 0.00 | 0.00 | ||
| 20260504171018 | 17 | 256 | 14.5 | 33.8 | 660.20 | 0.00 | 0.00 | ||
| 20260504151018 | 20 | 249 | 16.1 | 33.8 | 660.20 | 0.00 | 0.00 | ||
| 20260504110518 | 7 | 222 | 4.8 | 9.7 | 660.20 | 0.00 | 0.00 | ||
| 20260504100518 | 5 | 308 | 6.4 | 11.3 | 660.20 | 0.00 | 0.00 | ||
| 20260504081518 | 6 | 276 | 11.3 | 20.9 | 660.20 | 0.00 | 0.00 | ||
| 20260504050519 | 5 | 278 | 8.0 | 16.1 | 660.20 | 0.00 | 0.00 | ||
| 20260504050018 | 5 | 280 | 8.0 | 20.9 | 660.20 | 0.00 | 0.00 | ||
| 20260504045518 | 5 | 270 | 8.0 | 17.7 | 660.20 | 0.00 | 0.00 | ||
| 20260504045019 | 5 | 294 | 8.0 | 16.1 | 660.20 | 0.00 | 0.00 | ||
| 20260504044519 | 5 | 281 | 8.0 | 17.7 | 660.20 | 0.00 | 0.00 | ||
| 20260504044019 | 5 | 267 | 8.0 | 17.7 | 660.20 | 0.00 | 0.00 | ||
| 20260504042518 | 4 | 280 | 9.7 | 17.7 | 660.20 | 0.00 | 0.00 | ||
| 20260504042019 | 4 | 291 | 6.4 | 17.7 | 660.20 | 0.00 | 0.00 | ||
| 20260504041519 | 5 | 270 | 8.0 | 14.5 | 660.20 | 0.00 | 0.00 | ||
| 20260504040018 | 4 | 276 | 8.0 | 19.3 | 660.20 | 0.00 | 0.00 | ||
| 20260504035019 | 4 | 291 | 9.7 | 24.1 | 660.20 | 0.00 | 0.00 | ||
| 20260504034518 | 4 | 263 | 9.7 | 17.7 | 660.20 | 0.00 | 0.00 | ||
| 20260504033019 | 4 | 262 | 9.7 | 20.9 | 660.20 | 0.00 | 0.15 | ||
| 20260504032518 | 4 | 309 | 9.7 | 24.1 | 660.20 | 0.00 | 0.15 | ||
| 20260504031019 | 5 | 284 | 8.0 | 17.7 | 660.20 | 0.00 | 0.15 | ||
| 20260504025519 | 4 | 290 | 6.4 | 19.3 | 660.20 | 0.00 | 0.15 | ||
| 20260504025019 | 4 | 260 | 4.8 | 9.7 | 660.20 | 0.00 | 0.15 | ||
| 20260504021519 | 5 | 311 | 4.8 | 14.5 | 660.20 | 0.00 | 0.15 | ||
| 20260504020019 | 5 | 266 | 4.8 | 11.3 | 660.20 | 0.00 | 0.15 | ||
| 20260504014519 | 5 | 301 | 4.8 | 12.9 | 660.20 | 0.00 | 0.15 | ||
| 20260504014019 | 6 | 316 | 4.8 | 12.9 | 660.20 | 0.00 | 0.15 | ||
| 20260504013019 | 5 | 309 | 6.4 | 17.7 | 660.20 | 0.00 | 0.15 | ||
| 20260504012019 | 5 | 298 | 8.0 | 20.9 | 660.20 | 0.00 | 0.15 | ||
| 20260504011019 | 6 | 316 | 9.7 | 20.9 | 660.20 | 0.00 | 0.15 | ||
| 20260504010019 | 6 | 322 | 8.0 | 20.9 | 660.20 | 0.00 | 0.15 | ||
| 20260504004519 | 5 | 297 | 6.4 | 24.1 | 660.20 | 0.00 | 0.15 | ||
| 20260504004019 | 6 | 305 | 6.4 | 19.3 | 660.20 | 0.00 | 0.15 | ||
| 20260504003019 | 6 | 291 | 3.2 | 12.9 | 660.20 | 0.00 | 0.15 | ||
| 20260504001019 | 6 | 339 | 4.8 | 16.1 | 660.20 | 0.00 | 0.15 | ||
| 20260503235520 | 6 | 260 | 3.2 | 17.7 | 660.20 | 0.00 | 0.15 | ||
| 20260503235019 | 6 | 269 | 6.4 | 16.1 | 660.20 | 0.00 | 0.15 | ||
| 20260503234019 | 6 | 328 | 4.8 | 17.7 | 660.20 | 0.00 | 0.15 | ||
| 20260503233019 | 7 | 315 | 6.4 | 17.7 | 660.20 | 0.00 | 0.15 | ||
| 20260503232519 | 7 | 328 | 6.4 | 19.3 | 660.20 | 0.00 | 0.15 | ||
| 20260503232019 | 7 | 270 | 9.7 | 22.5 | 660.20 | 0.00 | 0.15 | ||
| 20260503231019 | 7 | 269 | 9.7 | 33.8 | 660.20 | 0.00 | 0.15 | ||
| 20260503230519 | 7 | 322 | 11.3 | 29.0 | 660.20 | 0.00 | 0.15 | ||
| 20260503225019 | 8 | 301 | 6.4 | 17.7 | 660.20 | 0.00 | 0.15 | ||
| 20260503223519 | 7 | 325 | 4.8 | 19.3 | 660.20 | 0.00 | 0.15 | ||
| 20260503221019 | 8 | 290 | 9.7 | 24.1 | 660.20 | 0.00 | 0.15 | ||
| 20260503220019 | 8 | 293 | 9.7 | 30.6 | 660.20 | 0.00 | 0.15 | ||
| 20260503215519 | 9 | 245 | 6.4 | 20.9 | 660.20 | 0.00 | 0.15 |